Date String (YYYY-MM-DD hh:mm:ss) UTC,Instrument flags,absolute air pressure of the measurement (hPa),sample flow rate (lpm),inlet stack bypass flow (lpm),air temperature of the measurement (°C),ambient temperature measured by the external sensor (°C),aerosol sample conditioner tube jacket temperature (°C),OPC LED temperature (°C),internal box temperature (°C),relative humidity of the measurement (%),span deviation,mass concentration of particles derived from Lorenz-Mie calculation of OPC scattering (μg/m³),mass concentration of particles derived from Lorenz-Mie calculation of OPC scattering (μg/m³),mass concentration of particles derived from Lorenz-Mie calculation of OPC scattering (μg/m³)
DateTimeUTC,F1_M11,P_M11,Q1_M11,Q2_M11,T1_M11,T2_M11,T3_M11,T4_M11,T5_M11,U1_M11,ZSPAN_M11,X0_M11,X2_M11,X1_M11
2023-09-09 20:00:00,SystemResetWarning,0836.6,4.98,000.00,027.8,025.3,000.0,035.9,029.2,17.7,0000.0,0013.83,0003.80,0002.59
2023-09-09 20:01:00,SystemResetWarning,0836.6,5.01,000.00,027.7,024.2,000.0,035.8,029.0,18.2,0000.0,0013.68,0003.77,0002.57
2023-09-09 20:02:00,SystemResetWarning,0836.5,5.01,000.00,027.7,024.4,000.0,035.8,029.1,18.5,0000.0,0013.45,0003.78,0002.57
2023-09-09 20:03:00,SystemResetWarning,0836.5,4.99,000.00,027.6,024.7,000.0,035.8,029.0,18.8,0000.0,0012.69,0003.79,0002.56
2023-09-09 20:04:00,SystemResetWarning,0836.5,5.00,000.00,027.6,025.1,000.0,035.8,029.1,18.4,0000.0,0011.48,0003.77,0002.56
2023-09-09 20:05:00,SystemResetWarning,0836.5,5.00,000.00,027.6,025.5,000.0,035.9,029.2,17.8,0000.2,0012.01,0003.78,0002.61
2023-09-09 20:06:00,SystemResetWarning,0836.5,5.00,000.00,027.6,025.9,000.0,035.9,029.3,17.6,0001.2,0012.80,0003.83,0002.67
2023-09-09 20:07:00,SystemResetWarning,0836.6,4.99,000.00,027.7,026.2,000.0,035.9,029.4,17.3,0000.6,0013.94,0003.87,0002.71
2023-09-09 20:08:00,SystemResetWarning,0836.6,5.00,000.00,027.7,026.5,000.0,035.9,029.5,17.2,0000.0,0014.07,0003.86,0002.76
2023-09-09 20:09:00,SystemResetWarning,0836.5,5.00,000.00,027.8,026.1,000.0,035.9,029.4,17.4,0001.3,0014.16,0003.89,0002.81
2023-09-09 20:10:00,SystemResetWarning,0836.5,5.00,000.00,027.7,024.5,000.0,035.9,029.0,17.6,0001.1,0013.89,0003.90,0002.89
2023-09-09 20:11:00,SystemResetWarning,0836.5,5.01,000.00,027.6,024.1,000.0,035.8,029.0,18.0,0000.0,0013.73,0003.96,0002.95
2023-09-09 20:12:00,SystemResetWarning,0836.5,5.00,000.00,027.6,024.4,000.0,035.8,029.0,17.4,0000.0,0014.67,0004.01,0002.99
2023-09-09 20:13:00,SystemResetWarning,0836.5,5.00,000.00,027.5,024.8,000.0,035.8,029.0,16.3,0000.0,0014.55,0004.01,0003.00
2023-09-09 20:14:00,SystemResetWarning,0836.5,5.01,000.00,027.6,025.2,000.0,035.8,029.1,16.1,0000.0,0015.49,0004.04,0003.03
2023-09-09 20:15:00,SystemResetWarning,0836.5,5.00,000.00,027.6,025.6,000.0,035.8,029.2,16.6,0000.0,0016.07,0004.01,0003.05
2023-09-09 20:16:00,SystemResetWarning,0836.5,5.00,000.00,027.6,026.0,000.0,035.9,029.3,16.8,0000.0,0015.81,0003.98,0003.01
2023-09-09 20:17:00,SystemResetWarning,0836.5,4.99,000.00,027.7,026.4,000.0,035.9,029.4,17.0,0000.0,0015.18,0003.94,0002.97
2023-09-09 20:18:00,SystemResetWarning,0836.5,5.00,000.00,027.7,026.6,000.0,035.9,029.5,17.3,0000.0,0014.77,0003.90,0002.93
2023-09-09 20:19:00,SystemResetWarning,0836.5,4.98,000.00,027.7,025.5,000.0,035.9,029.3,16.2,0000.0,0014.93,0003.88,0002.91
2023-09-09 20:20:00,SystemResetWarning,0836.4,5.01,000.00,027.7,024.2,000.0,035.8,029.0,16.4,0000.0,0016.06,0003.92,0002.90
2023-09-09 20:21:00,SystemResetWarning,0836.4,5.01,000.00,027.6,024.3,000.0,035.7,029.0,17.2,0000.0,0016.25,0003.89,0002.84
2023-09-09 20:22:00,SystemResetWarning,0836.4,5.00,000.00,027.6,024.6,000.0,035.7,029.0,17.9,0000.0,0016.67,0003.89,0002.78
2023-09-09 20:23:00,SystemResetWarning,0836.4,5.00,000.00,027.5,025.0,000.0,035.8,029.1,17.0,0000.0,0016.17,0003.83,0002.70
2023-09-09 20:24:00,SystemResetWarning,0836.4,5.00,000.00,027.6,025.5,000.0,035.8,029.1,16.7,0000.0,0016.77,0003.76,0002.65
2023-09-09 20:25:00,SystemResetWarning,0836.5,5.00,000.00,027.6,025.9,000.0,035.8,029.2,16.5,0000.0,0017.15,0003.76,0002.63
2023-09-09 20:26:00,SystemResetWarning,0836.5,5.00,000.00,027.6,026.2,000.0,035.9,029.4,16.4,0000.0,0016.75,0003.78,0002.62
2023-09-09 20:27:00,SystemResetWarning,0836.4,5.00,000.00,027.7,026.6,000.0,035.9,029.5,16.1,0000.0,0016.16,0003.81,0002.62
2023-09-09 20:28:00,SystemResetWarning,0836.4,4.99,000.00,027.8,026.4,000.0,035.9,029.5,16.7,0000.0,0016.24,0003.79,0002.62
2023-09-09 20:29:00,SystemResetWarning,0836.3,4.99,000.00,027.7,024.9,000.0,035.8,029.2,17.4,0000.0,0015.63,0003.77,0002.61
2023-09-09 20:30:00,SystemResetWarning,0836.2,5.01,000.00,027.7,024.2,000.0,035.7,029.1,17.3,0000.0,0015.40,0003.78,0002.64
2023-09-09 20:31:00,SystemResetWarning,0836.3,5.01,000.00,027.6,024.4,000.0,035.7,029.1,17.5,0000.0,0014.13,0003.70,0002.61
2023-09-09 20:32:00,SystemResetWarning,0836.2,4.99,000.00,027.6,024.8,000.0,035.7,029.0,17.3,0000.0,0013.80,0003.65,0002.58
2023-09-09 20:33:00,SystemResetWarning,0836.2,5.00,000.00,027.6,025.2,000.0,035.8,029.1,16.4,0000.0,0013.07,0003.62,0002.58
2023-09-09 20:34:00,SystemResetWarning,0836.2,5.01,000.00,027.6,025.7,000.0,035.8,029.2,16.7,0000.0,0012.79,0003.63,0002.62
2023-09-09 20:35:00,SystemResetWarning,0836.3,5.00,000.00,027.6,026.1,000.0,035.8,029.3,16.2,0000.0,0012.27,0003.66,0002.67
2023-09-09 20:36:00,SystemResetWarning,0836.2,5.00,000.00,027.7,026.4,000.0,035.9,029.4,16.1,0000.0,0011.35,0003.64,0002.70
2023-09-09 20:37:00,SystemResetWarning,0836.2,5.00,000.00,027.8,026.7,000.0,035.9,029.5,15.7,0000.0,0011.27,0003.60,0002.72
2023-09-09 20:38:00,SystemResetWarning,0836.2,4.99,000.00,027.8,025.9,000.0,035.9,029.4,15.8,0000.5,0012.37,0003.55,0002.74
2023-09-09 20:39:00,SystemResetWarning,0836.2,5.00,000.00,027.7,024.5,000.0,035.8,029.1,16.3,0000.0,0012.00,0003.55,0002.76
2023-09-09 20:40:00,SystemResetWarning,0836.2,5.02,000.00,027.7,024.3,000.0,035.8,029.1,16.8,0000.0,0011.92,0003.54,0002.79
2023-09-09 20:41:00,SystemResetWarning,0836.2,4.99,000.00,027.6,024.6,000.0,035.8,029.1,16.6,0000.0,0011.90,0003.55,0002.79
2023-09-09 20:42:00,SystemResetWarning,0836.2,5.00,000.00,027.6,025.0,000.0,035.8,029.1,16.9,0000.0,0011.94,0003.59,0002.81
2023-09-09 20:43:00,SystemResetWarning,0836.2,5.01,000.00,027.6,025.4,000.0,035.8,029.2,17.5,0000.0,0012.98,0003.67,0002.85
2023-09-09 20:44:00,SystemResetWarning,0836.2,5.00,000.00,027.6,025.8,000.0,035.8,029.3,17.9,0000.0,0013.36,0003.70,0002.88
2023-09-09 20:45:00,SystemResetWarning,0836.2,5.00,000.00,027.7,026.2,000.0,035.9,029.4,17.6,0000.0,0013.30,0003.67,0002.87
2023-09-09 20:46:00,SystemResetWarning,0836.2,4.99,000.00,027.7,026.5,000.0,035.9,029.5,17.8,0000.0,0013.34,0003.67,0002.87
2023-09-09 20:47:00,SystemResetWarning,0836.2,5.00,000.00,027.8,026.5,000.0,035.9,029.5,17.8,0000.0,0013.08,0003.69,0002.85
2023-09-09 20:48:00,SystemResetWarning,0836.1,4.99,000.00,027.8,025.2,000.0,035.9,029.2,17.9,0000.4,0012.37,0003.69,0002.79
2023-09-09 20:49:00,SystemResetWarning,0836.1,5.02,000.00,027.7,024.2,000.0,035.8,029.0,17.5,0000.3,0011.20,0003.66,0002.72
2023-09-09 20:50:00,SystemResetWarning,0836.1,5.01,000.00,027.7,024.4,000.0,035.8,029.1,17.5,0001.1,0010.64,0003.65,0002.65
2023-09-09 20:51:00,SystemResetWarning,0836.1,4.99,000.00,027.6,024.7,000.0,035.8,029.0,17.7,0001.0,0010.88,0003.62,0002.58
2023-09-09 20:52:00,SystemResetWarning,0836.1,5.00,000.00,027.6,025.1,000.0,035.8,029.1,17.8,0001.4,0011.20,0003.61,0002.55
2023-09-09 20:53:00,SystemResetWarning,0836.1,5.00,000.00,027.6,025.6,000.0,035.8,029.2,17.7,0002.3,0011.24,0003.62,0002.54
2023-09-09 20:54:00,SystemResetWarning,0836.1,5.01,000.00,027.7,026.0,000.0,035.9,029.3,17.4,0002.9,0010.41,0003.61,0002.53
2023-09-09 20:55:00,SystemResetWarning,0836.1,4.99,000.00,027.7,026.3,000.0,035.9,029.4,17.7,0003.0,0010.08,0003.61,0002.50
2023-09-09 20:56:00,SystemResetWarning,0836.1,5.00,000.00,027.8,026.6,000.0,035.9,029.5,18.1,0003.2,0010.30,0003.62,0002.49
2023-09-09 20:57:00,SystemResetWarning,0836.1,4.99,000.00,027.8,026.1,000.0,035.9,029.4,18.3,0003.5,0010.55,0003.67,0002.49
2023-09-09 20:58:00,SystemResetWarning,0836.1,5.00,000.00,027.7,024.6,000.0,035.8,029.1,17.8,0003.3,0011.47,0003.66,0002.49
2023-09-09 20:59:00,SystemResetWarning,0836.1,5.01,000.00,027.7,024.2,000.0,035.8,029.1,17.4,0003.3,0012.61,0003.66,0002.49
